Time,TemperatureF,DewpointF,PressureIn,WindDirection,WindDirectionDegrees,WindSpeedMPH,WindSpeedGustMPH,Humidity,HourlyPrecipIn,Conditions,Clouds,dailyrainin,SoftwareType,DateUTC
2013-01-08 00:01:00,57.0,56.7,29.93,NE,44,7.2,12.2,99,0.00,,---,0.02,VWS V14.01,2013-01-08 06:01:00,
2013-01-08 00:06:00,57.0,56.7,29.93,NE,34,4.2,16.2,99,0.00,,---,0.00,VWS V14.01,2013-01-08 06:06:00,
2013-01-08 00:11:00,57.2,56.9,29.93,ENE,57,6.2,9.2,99,0.00,,---,0.00,VWS V14.01,2013-01-08 06:11:00,
2013-01-08 00:16:00,57.2,56.9,29.92,NE,34,9.2,9.2,99,0.00,,---,0.00,VWS V14.01,2013-01-08 06:16:00,
2013-01-08 00:21:00,57.2,56.9,29.92,ENE,61,12.2,12.2,99,0.00,,---,0.00,VWS V14.01,2013-01-08 06:21:00,
2013-01-08 00:26:00,57.2,56.9,29.92,NNE,30,7.2,16.2,99,0.00,,---,0.00,VWS V14.01,2013-01-08 06:26:00,
2013-01-08 00:31:00,57.3,57.0,29.92,NE,43,7.2,10.2,99,0.00,,---,0.00,VWS V14.01,2013-01-08 06:31:00,
2013-01-08 00:36:00,57.5,57.5,29.92,NE,42,11.2,13.2,100,0.00,,---,0.00,VWS V14.01,2013-01-08 06:36:00,
2013-01-08 00:41:00,57.5,57.2,29.92,NE,48,7.2,10.2,99,0.00,,---,0.00,VWS V14.01,2013-01-08 06:41:00,
2013-01-08 00:46:00,57.6,57.6,29.92,NE,43,6.2,11.2,100,0.00,,---,0.00,VWS V14.01,2013-01-08 06:46:00,
2013-01-08 00:51:00,57.8,57.8,29.92,ENE,61,4.2,12.2,100,0.00,,---,0.00,VWS V14.01,2013-01-08 06:51:00,
2013-01-08 00:56:00,58.1,58.1,29.92,NE,40,7.2,12.2,100,0.00,,---,0.00,VWS V14.01,2013-01-08 06:56:00,
2013-01-08 01:01:00,58.3,58.3,29.90,NE,34,1.2,11.2,100,0.00,,---,0.00,VWS V14.01,2013-01-08 07:01:00,
2013-01-08 01:06:00,58.3,58.3,29.90,NE,55,6.2,6.2,100,0.00,,---,0.00,VWS V14.01,2013-01-08 07:06:00,
2013-01-08 01:11:00,58.3,58.3,29.90,NE,46,7.2,12.2,100,0.00,,---,0.00,VWS V14.01,2013-01-08 07:11:00,
2013-01-08 01:16:00,58.3,58.3,29.90,NNE,32,3.2,11.2,100,0.00,,---,0.00,VWS V14.01,2013-01-08 07:16:00,
2013-01-08 01:21:00,58.3,58.3,29.90,ENE,57,5.2,7.2,100,0.00,,---,0.00,VWS V14.01,2013-01-08 07:21:00,
2013-01-08 01:26:00,58.3,58.3,29.90,NE,34,9.2,12.2,100,0.00,,---,0.00,VWS V14.01,2013-01-08 07:26:00,
2013-01-08 01:31:00,58.3,58.3,29.90,NE,36,6.2,12.2,100,0.00,,---,0.00,VWS V14.01,2013-01-08 07:31:00,
2013-01-08 01:36:00,58.3,58.3,29.90,ENE,57,5.2,12.2,100,0.00,,---,0.00,VWS V14.01,2013-01-08 07:36:00,
2013-01-08 01:41:00,58.3,58.3,29.90,NNE,30,7.2,11.2,100,0.00,,---,0.00,VWS V14.01,2013-01-08 07:41:00,
2013-01-08 01:46:00,58.3,58.3,29.90,NE,41,4.2,10.2,100,0.00,,---,0.00,VWS V14.01,2013-01-08 07:46:00,
2013-01-08 01:51:00,58.4,58.4,29.90,NE,35,5.2,7.2,100,0.00,,---,0.00,VWS V14.01,2013-01-08 07:51:00,
2013-01-08 01:56:00,58.4,58.4,29.90,ENE,65,5.2,10.2,100,0.00,,---,0.00,VWS V14.01,2013-01-08 07:56:00,
2013-01-08 02:01:00,58.4,58.4,29.89,NE,53,6.2,11.2,100,0.00,,---,0.00,VWS V14.01,2013-01-08 08:01:00,
2013-01-08 02:06:00,58.4,58.4,29.89,ENE,69,6.2,7.2,100,0.00,,---,0.00,VWS V14.01,2013-01-08 08:06:00,
2013-01-08 02:11:00,58.4,58.4,29.89,ENE,62,6.2,10.2,100,0.00,,---,0.00,VWS V14.01,2013-01-08 08:11:00,
2013-01-08 02:16:00,58.6,58.6,29.88,NE,40,7.2,11.2,100,0.00,,---,0.00,VWS V14.01,2013-01-08 08:16:00,
2013-01-08 02:21:00,58.7,58.7,29.88,NNE,31,8.2,11.2,100,0.00,,---,0.00,VWS V14.01,2013-01-08 08:21:00,
2013-01-08 02:26:00,58.6,58.6,29.88,NE,39,8.2,10.2,100,0.00,,---,0.00,VWS V14.01,2013-01-08 08:26:00,
2013-01-08 02:31:00,58.4,58.4,29.89,NE,39,7.2,11.2,100,0.00,,---,0.00,VWS V14.01,2013-01-08 08:31:00,
2013-01-08 02:36:00,58.4,58.4,29.89,NE,50,3.2,8.2,100,0.00,,---,0.00,VWS V14.01,2013-01-08 08:36:00,
2013-01-08 02:41:00,58.4,58.4,29.89,NE,36,5.2,11.2,100,0.00,,---,0.00,VWS V14.01,2013-01-08 08:41:00,
2013-01-08 02:46:00,58.4,58.4,29.90,NE,40,4.2,11.2,100,0.00,,---,0.00,VWS V14.01,2013-01-08 08:46:00,
2013-01-08 02:51:00,58.4,58.4,29.90,NE,38,4.2,7.2,100,0.00,,---,0.00,VWS V14.01,2013-01-08 08:51:00,
2013-01-08 02:56:00,58.4,58.4,29.90,NE,36,5.2,8.2,100,0.01,,---,0.01,VWS V14.01,2013-01-08 08:56:00,
2013-01-08 03:01:00,58.4,58.4,29.90,NE,50,3.2,8.2,100,0.01,,---,0.01,VWS V14.01,2013-01-08 09:01:00,
2013-01-08 03:06:00,58.4,58.4,29.90,NE,49,5.2,10.2,100,0.01,,---,0.01,VWS V14.01,2013-01-08 09:06:00,
2013-01-08 03:11:00,58.4,58.4,29.90,NE,42,4.2,7.2,100,0.01,,---,0.01,VWS V14.01,2013-01-08 09:11:00,
2013-01-08 03:16:00,58.3,58.3,29.90,NE,51,2.2,11.2,100,0.01,,---,0.01,VWS V14.01,2013-01-08 09:16:00,
2013-01-08 03:21:00,58.3,58.3,29.90,NE,34,4.2,8.2,100,0.01,,---,0.01,VWS V14.01,2013-01-08 09:21:00,
2013-01-08 03:26:00,58.3,58.3,29.90,NE,35,2.2,9.2,100,0.01,,---,0.01,VWS V14.01,2013-01-08 09:26:00,
2013-01-08 03:31:00,58.3,58.3,29.89,ENE,61,5.2,10.2,100,0.01,,---,0.01,VWS V14.01,2013-01-08 09:31:00,
2013-01-08 03:36:00,58.1,58.1,29.89,NNE,32,5.2,13.2,100,0.01,,---,0.01,VWS V14.01,2013-01-08 09:36:00,
2013-01-08 03:41:00,58.1,58.1,29.89,NNE,30,5.2,11.2,100,0.01,,---,0.01,VWS V14.01,2013-01-08 09:41:00,
2013-01-08 03:46:00,58.0,58.0,29.90,NW,313,3.2,6.2,100,0.01,,---,0.01,VWS V14.01,2013-01-08 09:46:00,
2013-01-08 03:51:00,57.8,57.8,29.90,North,11,5.2,8.2,100,0.02,,---,0.02,VWS V14.01,2013-01-08 09:51:00,
2013-01-08 03:56:00,57.5,57.5,29.90,NNE,32,5.2,11.2,100,0.02,,---,0.02,VWS V14.01,2013-01-08 09:56:00,
2013-01-08 04:01:00,57.3,57.3,29.86,NE,46,5.2,11.2,100,0.01,,---,0.02,VWS V14.01,2013-01-08 10:01:00,
2013-01-08 04:06:00,57.2,57.2,29.86,ENE,58,6.2,14.2,100,0.01,,---,0.02,VWS V14.01,2013-01-08 10:06:00,
2013-01-08 04:11:00,57.2,57.2,29.86,ENE,65,6.2,10.2,100,0.01,,---,0.02,VWS V14.01,2013-01-08 10:11:00,
2013-01-08 04:16:00,57.0,57.0,29.85,East,83,5.2,10.2,100,0.01,,---,0.02,VWS V14.01,2013-01-08 10:16:00,
2013-01-08 04:21:00,57.0,57.0,29.85,East,101,6.2,13.2,100,0.01,,---,0.02,VWS V14.01,2013-01-08 10:21:00,
2013-01-08 04:26:00,57.5,57.5,29.85,East,84,12.2,13.2,100,0.01,,---,0.02,VWS V14.01,2013-01-08 10:26:00,
2013-01-08 04:31:00,58.0,58.0,29.84,East,85,3.2,12.2,100,0.01,,---,0.02,VWS V14.01,2013-01-08 10:31:00,
2013-01-08 04:35:00,58.4,58.4,29.84,ENE,67,10.2,13.2,100,0.01,,---,0.02,VWS V14.01,2013-01-08 10:35:00,
2013-01-08 04:40:00,58.6,58.6,29.84,East,94,8.2,12.2,100,0.01,,---,0.02,VWS V14.01,2013-01-08 10:40:00,
2013-01-08 04:45:00,58.7,58.7,29.83,ESE,103,5.2,11.2,100,0.01,,---,0.02,VWS V14.01,2013-01-08 10:45:00,
2013-01-08 04:50:00,58.7,58.7,29.83,ENE,76,4.2,12.2,100,0.01,,---,0.02,VWS V14.01,2013-01-08 10:50:00,
2013-01-08 04:55:00,58.6,58.6,29.83,ENE,67,5.2,11.2,100,0.00,,---,0.02,VWS V14.01,2013-01-08 10:55:00,
2013-01-08 05:00:00,58.4,58.4,29.83,ENE,75,5.2,10.2,100,0.00,,---,0.02,VWS V14.01,2013-01-08 11:00:00,
2013-01-08 05:05:00,58.4,58.4,29.83,East,85,4.2,11.2,100,0.00,,---,0.02,VWS V14.01,2013-01-08 11:05:00,
2013-01-08 05:10:00,58.3,58.3,29.83,East,88,1.2,8.2,100,0.00,,---,0.02,VWS V14.01,2013-01-08 11:10:00,
2013-01-08 05:16:00,58.3,58.3,29.82,East,97,6.2,7.2,100,0.00,,---,0.02,VWS V14.01,2013-01-08 11:16:00,
2013-01-08 05:21:00,58.3,58.3,29.82,ESE,108,5.2,10.2,100,0.00,,---,0.02,VWS V14.01,2013-01-08 11:21:00,
2013-01-08 05:25:00,58.3,58.3,29.82,East,79,5.2,8.2,100,0.00,,---,0.02,VWS V14.01,2013-01-08 11:25:00,
2013-01-08 05:30:00,58.1,58.1,29.82,East,96,3.2,8.2,100,0.00,,---,0.02,VWS V14.01,2013-01-08 11:30:00,
2013-01-08 05:35:00,58.1,58.1,29.82,East,88,4.2,8.2,100,0.00,,---,0.02,VWS V14.01,2013-01-08 11:35:00,
2013-01-08 05:40:00,58.3,58.3,29.82,East,97,2.2,5.2,100,0.00,,---,0.02,VWS V14.01,2013-01-08 11:40:00,
2013-01-08 05:45:00,58.4,58.4,29.83,East,92,3.2,6.2,100,0.00,,---,0.02,VWS V14.01,2013-01-08 11:45:00,
2013-01-08 05:50:00,58.6,58.6,29.83,East,92,4.2,6.2,100,0.00,,---,0.02,VWS V14.01,2013-01-08 11:50:00,
2013-01-08 05:55:00,58.6,58.6,29.83,East,98,2.2,6.2,100,0.00,,---,0.02,VWS V14.01,2013-01-08 11:55:00,
2013-01-08 06:00:00,58.6,58.6,29.83,East,91,3.2,5.2,100,0.00,,---,0.02,VWS V14.01,2013-01-08 12:00:00,
2013-01-08 06:05:00,58.6,58.6,29.83,East,82,4.2,6.2,100,0.00,,---,0.02,VWS V14.01,2013-01-08 12:05:00,
2013-01-08 06:10:00,58.6,58.6,29.83,ENE,75,3.2,7.2,100,0.00,,---,0.02,VWS V14.01,2013-01-08 12:10:00,
2013-01-08 06:15:00,58.6,58.6,29.82,East,91,4.2,7.2,100,0.00,,---,0.02,VWS V14.01,2013-01-08 12:15:00,
2013-01-08 06:20:00,58.6,58.6,29.82,East,93,4.2,7.2,100,0.00,,---,0.02,VWS V14.01,2013-01-08 12:20:00,
2013-01-08 06:25:00,58.6,58.6,29.82,East,88,3.2,6.2,100,0.00,,---,0.02,VWS V14.01,2013-01-08 12:25:00,
2013-01-08 06:30:00,58.7,58.7,29.82,East,87,3.2,5.2,100,0.00,,---,0.02,VWS V14.01,2013-01-08 12:30:00,
2013-01-08 06:35:00,58.7,58.7,29.82,ENE,67,4.2,6.2,100,0.00,,---,0.02,VWS V14.01,2013-01-08 12:35:00,
2013-01-08 06:40:00,58.7,58.7,29.82,ENE,63,4.2,6.2,100,0.00,,---,0.02,VWS V14.01,2013-01-08 12:40:00,
2013-01-08 06:45:00,59.0,59.0,29.82,ENE,71,4.2,6.2,100,0.00,,---,0.02,VWS V14.01,2013-01-08 12:45:00,
2013-01-08 06:50:00,59.5,59.5,29.82,ENE,65,4.2,6.2,100,0.00,,---,0.02,VWS V14.01,2013-01-08 12:50:00,
2013-01-08 06:55:00,59.9,59.9,29.82,East,84,2.2,8.2,100,0.00,,---,0.02,VWS V14.01,2013-01-08 12:55:00,
2013-01-08 07:00:00,60.1,60.1,29.83,ENE,78,3.2,5.2,100,0.00,,---,0.02,VWS V14.01,2013-01-08 13:00:00,
2013-01-08 07:05:00,60.1,60.1,29.83,ENE,65,6.2,7.2,100,0.00,,---,0.02,VWS V14.01,2013-01-08 13:05:00,
2013-01-08 07:10:00,60.2,60.2,29.83,East,80,3.2,7.2,100,0.00,,---,0.02,VWS V14.01,2013-01-08 13:10:00,
2013-01-08 07:15:00,60.4,60.4,29.82,ENE,65,4.2,7.2,100,0.00,,---,0.02,VWS V14.01,2013-01-08 13:15:00,
2013-01-08 07:20:00,60.4,60.4,29.82,ENE,67,3.2,6.2,100,0.00,,---,0.02,VWS V14.01,2013-01-08 13:20:00,
2013-01-08 07:25:00,60.5,60.5,29.82,ENE,67,1.2,4.2,100,0.00,,---,0.02,VWS V14.01,2013-01-08 13:25:00,
2013-01-08 07:30:00,60.5,60.5,29.83,NE,49,3.2,6.2,100,0.00,,---,0.02,VWS V14.01,2013-01-08 13:30:00,
2013-01-08 07:35:00,60.5,60.5,29.83,NE,49,4.2,6.2,100,0.00,,---,0.02,VWS V14.01,2013-01-08 13:35:00,
2013-01-08 07:40:00,60.5,60.5,29.83,NE,50,1.2,6.2,100,0.00,,---,0.02,VWS V14.01,2013-01-08 13:40:00,
2013-01-08 07:45:00,60.5,60.5,29.83,NE,50,5.2,5.2,100,0.00,,---,0.02,VWS V14.01,2013-01-08 13:45:00,
2013-01-08 07:50:00,60.7,60.7,29.83,NE,49,2.2,6.2,100,0.00,,---,0.02,VWS V14.01,2013-01-08 13:50:00,
2013-01-08 07:55:00,60.9,60.9,29.83,NE,49,4.2,6.2,100,0.00,,---,0.02,VWS V14.01,2013-01-08 13:55:00,
2013-01-08 08:00:00,61.2,61.2,29.84,NE,46,5.2,7.2,100,0.00,,---,0.02,VWS V14.01,2013-01-08 14:00:00,
2013-01-08 08:05:00,61.3,61.3,29.84,NE,47,4.2,6.2,100,0.00,,---,0.02,VWS V14.01,2013-01-08 14:05:00,
2013-01-08 08:10:00,61.6,61.6,29.84,NE,48,4.2,6.2,100,0.00,,---,0.02,VWS V14.01,2013-01-08 14:10:00,
2013-01-08 08:15:00,61.8,61.8,29.84,NE,47,5.2,7.2,100,0.00,,---,0.02,VWS V14.01,2013-01-08 14:15:00,
2013-01-08 08:20:00,62.0,62.0,29.84,NNE,28,4.2,7.2,100,0.00,,---,0.02,VWS V14.01,2013-01-08 14:20:00,
2013-01-08 08:25:00,62.1,62.1,29.84,ENE,63,4.2,8.2,100,0.00,,---,0.02,VWS V14.01,2013-01-08 14:25:00,
2013-01-08 08:30:00,62.1,62.1,29.84,NE,35,2.2,7.2,100,0.00,,---,0.02,VWS V14.01,2013-01-08 14:30:00,
2013-01-08 08:35:00,62.1,62.1,29.84,NNE,30,3.2,7.2,100,0.00,,---,0.02,VWS V14.01,2013-01-08 14:35:00,
2013-01-08 08:40:00,62.3,62.3,29.84,NNE,31,5.2,7.2,100,0.00,,---,0.02,VWS V14.01,2013-01-08 14:40:00,
2013-01-08 08:45:00,62.4,62.4,29.84,NNE,17,1.2,6.2,100,0.00,,---,0.02,VWS V14.01,2013-01-08 14:45:00,
2013-01-08 08:50:00,61.6,61.6,29.84,NNE,17,1.2,3.2,100,0.00,,---,0.02,VWS V14.01,2013-01-08 14:50:00,
2013-01-08 08:55:00,60.7,60.7,29.84,NNE,17,1.2,1.2,100,0.00,,---,0.02,VWS V14.01,2013-01-08 14:55:00,
2013-01-08 09:00:00,60.5,60.5,29.88,NNE,17,1.2,2.2,100,0.00,,---,0.02,VWS V14.01,2013-01-08 15:00:00,
2013-01-08 09:05:00,60.9,60.9,29.88,NNE,17,1.2,1.2,100,0.00,,---,0.02,VWS V14.01,2013-01-08 15:05:00,
2013-01-08 09:10:00,61.0,61.0,29.88,NNE,17,1.2,1.2,100,0.00,,---,0.02,VWS V14.01,2013-01-08 15:10:00,
2013-01-08 09:15:00,61.3,61.3,29.89,NNE,17,1.2,1.2,100,0.00,,---,0.02,VWS V14.01,2013-01-08 15:15:00,
2013-01-08 09:20:00,61.5,61.5,29.89,NNE,17,1.2,1.2,100,0.00,,---,0.02,VWS V14.01,2013-01-08 15:20:00,
2013-01-08 09:25:00,61.8,61.8,29.89,NNE,17,2.2,2.2,100,0.00,,---,0.02,VWS V14.01,2013-01-08 15:25:00,
2013-01-08 09:30:00,62.1,62.1,29.88,NNE,17,4.2,4.2,100,0.00,,---,0.02,VWS V14.01,2013-01-08 15:30:00,
2013-01-08 09:35:00,61.0,61.0,29.88,NNE,17,2.2,4.2,100,0.01,,---,0.03,VWS V14.01,2013-01-08 15:35:00,
2013-01-08 09:40:00,60.7,60.7,29.88,NNE,17,1.2,4.2,100,0.01,,---,0.03,VWS V14.01,2013-01-08 15:40:00,
2013-01-08 09:45:00,60.9,60.9,29.89,NNE,17,1.2,2.2,100,0.01,,---,0.03,VWS V14.01,2013-01-08 15:45:00,
2013-01-08 09:50:00,61.0,61.0,29.89,NNE,17,2.2,3.2,100,0.01,,---,0.03,VWS V14.01,2013-01-08 15:50:00,
2013-01-08 09:55:00,61.2,61.2,29.89,NNE,17,2.2,3.2,100,0.02,,---,0.04,VWS V14.01,2013-01-08 15:55:00,
2013-01-08 10:00:00,61.6,61.6,29.87,NNE,17,1.2,3.2,100,0.03,,---,0.05,VWS V14.01,2013-01-08 16:00:00,
2013-01-08 10:05:00,61.8,61.8,29.87,NNE,17,2.2,3.2,100,0.03,,---,0.05,VWS V14.01,2013-01-08 16:05:00,
2013-01-08 10:10:00,62.1,62.1,29.87,NNE,17,1.2,3.2,100,0.03,,---,0.05,VWS V14.01,2013-01-08 16:10:00,
2013-01-08 10:15:00,62.4,62.4,29.86,NNE,17,1.2,4.2,100,0.03,,---,0.05,VWS V14.01,2013-01-08 16:15:00,
2013-01-08 10:20:00,62.9,62.9,29.86,NNE,17,1.2,3.2,100,0.03,,---,0.05,VWS V14.01,2013-01-08 16:20:00,
2013-01-08 10:25:00,63.2,63.2,29.86,NNE,17,2.2,2.2,100,0.03,,---,0.05,VWS V14.01,2013-01-08 16:25:00,
2013-01-08 10:30:00,63.5,63.5,29.85,NNE,17,1.2,2.2,100,0.03,,---,0.05,VWS V14.01,2013-01-08 16:30:00,
2013-01-08 10:35:00,64.2,64.2,29.85,NNE,17,1.2,4.2,100,0.03,,---,0.05,VWS V14.01,2013-01-08 16:35:00,
2013-01-08 10:40:00,64.3,64.3,29.85,NE,49,3.2,6.2,100,0.02,,---,0.05,VWS V14.01,2013-01-08 16:40:00,
2013-01-08 10:45:00,64.5,64.5,29.83,NE,55,2.2,7.2,100,0.02,,---,0.05,VWS V14.01,2013-01-08 16:45:00,
2013-01-08 10:50:00,64.5,64.5,29.83,ENE,57,3.2,9.2,100,0.02,,---,0.05,VWS V14.01,2013-01-08 16:50:00,
2013-01-08 10:55:00,64.7,64.7,29.83,ENE,57,3.2,5.2,100,0.02,,---,0.05,VWS V14.01,2013-01-08 16:55:00,
2013-01-08 11:00:00,65.0,65.0,29.83,ENE,57,2.2,4.2,100,0.01,,---,0.05,VWS V14.01,2013-01-08 17:00:00,
2013-01-08 11:05:00,65.3,65.3,29.83,ENE,57,1.2,4.2,100,0.00,,---,0.05,VWS V14.01,2013-01-08 17:05:00,
2013-01-08 11:10:00,65.6,65.6,29.83,ENE,57,1.2,2.2,100,0.00,,---,0.05,VWS V14.01,2013-01-08 17:10:00,
2013-01-08 11:15:00,65.6,65.6,29.84,ENE,57,1.2,4.2,100,0.00,,---,0.05,VWS V14.01,2013-01-08 17:15:00,
2013-01-08 11:20:00,65.8,65.8,29.84,ENE,57,1.2,2.2,100,0.00,,---,0.05,VWS V14.01,2013-01-08 17:20:00,
2013-01-08 11:25:00,66.0,66.0,29.84,ENE,57,1.2,2.2,100,0.00,,---,0.05,VWS V14.01,2013-01-08 17:25:00,
2013-01-08 11:30:00,66.1,66.1,29.84,ENE,57,1.2,2.2,100,0.00,,---,0.05,VWS V14.01,2013-01-08 17:30:00,
2013-01-08 11:35:00,66.3,66.3,29.84,ENE,57,1.2,1.2,100,0.00,,---,0.05,VWS V14.01,2013-01-08 17:35:00,
2013-01-08 11:40:00,66.4,66.4,29.84,ENE,57,1.2,2.2,100,0.00,,---,0.05,VWS V14.01,2013-01-08 17:40:00,
2013-01-08 11:45:00,66.9,66.9,29.83,ENE,57,1.2,5.2,100,0.00,,---,0.05,VWS V14.01,2013-01-08 17:45:00,
2013-01-08 11:50:00,66.8,66.8,29.83,ENE,57,3.2,5.2,100,0.00,,---,0.05,VWS V14.01,2013-01-08 17:50:00,
2013-01-08 11:55:00,66.8,66.8,29.83,ENE,59,4.2,5.2,100,0.00,,---,0.05,VWS V14.01,2013-01-08 17:55:00,
2013-01-08 12:00:00,66.8,66.8,29.82,SE,124,5.2,8.2,100,0.00,,---,0.05,VWS V14.01,2013-01-08 18:00:00,
2013-01-08 12:05:00,66.9,66.9,29.82,SE,132,2.2,8.2,100,0.00,,---,0.05,VWS V14.01,2013-01-08 18:05:00,
2013-01-08 12:10:00,66.9,66.9,29.82,SE,142,2.2,10.2,100,0.00,,---,0.05,VWS V14.01,2013-01-08 18:10:00,
2013-01-08 12:15:00,66.8,66.8,29.82,SSE,148,4.2,10.2,100,0.00,,---,0.05,VWS V14.01,2013-01-08 18:15:00,
2013-01-08 12:20:00,66.6,66.6,29.82,SSW,193,3.2,10.2,100,0.00,,---,0.05,VWS V14.01,2013-01-08 18:20:00,
2013-01-08 12:25:00,66.9,66.9,29.82,SSE,168,5.2,11.2,100,0.00,,---,0.05,VWS V14.01,2013-01-08 18:25:00,
2013-01-08 12:30:00,66.9,66.9,29.81,SSE,163,2.2,7.2,100,0.00,,---,0.05,VWS V14.01,2013-01-08 18:30:00,
2013-01-08 12:35:00,66.9,66.9,29.81,SSE,163,3.2,10.2,100,0.00,,---,0.05,VWS V14.01,2013-01-08 18:35:00,
2013-01-08 12:40:00,66.6,66.6,29.81,SE,138,4.2,10.2,100,0.00,,---,0.05,VWS V14.01,2013-01-08 18:40:00,
2013-01-08 12:45:00,66.4,66.4,29.79,South,172,3.2,7.2,100,0.00,,---,0.05,VWS V14.01,2013-01-08 18:45:00,
2013-01-08 12:50:00,66.3,66.3,29.79,South,170,4.2,8.2,100,0.00,,---,0.05,VWS V14.01,2013-01-08 18:50:00,
2013-01-08 12:55:00,66.1,66.1,29.79,SSE,159,3.2,10.2,100,0.00,,---,0.05,VWS V14.01,2013-01-08 18:55:00,
2013-01-08 13:00:00,66.1,65.8,29.78,SSE,150,1.2,10.2,99,0.00,,---,0.05,VWS V14.01,2013-01-08 19:00:00,
2013-01-08 13:05:00,66.3,66.0,29.78,SE,146,1.2,11.2,99,0.00,,---,0.05,VWS V14.01,2013-01-08 19:05:00,
2013-01-08 13:10:00,66.1,65.8,29.78,SSE,152,3.2,7.2,99,0.00,,---,0.05,VWS V14.01,2013-01-08 19:10:00,
2013-01-08 13:15:00,66.0,65.4,29.77,SE,144,4.2,8.2,98,0.00,,---,0.05,VWS V14.01,2013-01-08 19:15:00,
2013-01-08 13:20:00,66.0,65.4,29.77,SE,142,6.2,7.2,98,0.00,,---,0.05,VWS V14.01,2013-01-08 19:20:00,
2013-01-08 13:25:00,66.3,65.7,29.77,SSE,153,5.2,11.2,98,0.00,,---,0.05,VWS V14.01,2013-01-08 19:25:00,
2013-01-08 13:30:00,66.6,66.0,29.77,SE,146,1.2,7.2,98,0.00,,---,0.05,VWS V14.01,2013-01-08 19:30:00,
2013-01-08 13:35:00,66.9,66.0,29.77,SSE,151,1.2,7.2,97,0.00,,---,0.05,VWS V14.01,2013-01-08 19:35:00,
2013-01-08 13:40:00,66.9,66.0,29.77,SSE,157,3.2,7.2,97,0.00,,---,0.05,VWS V14.01,2013-01-08 19:40:00,
2013-01-08 13:45:00,66.9,66.0,29.76,SSE,152,1.2,6.2,97,0.00,,---,0.05,VWS V14.01,2013-01-08 19:45:00,
2013-01-08 13:50:00,66.8,65.9,29.76,SE,138,6.2,6.2,97,0.00,,---,0.05,VWS V14.01,2013-01-08 19:50:00,
2013-01-08 13:55:00,66.9,65.7,29.76,SE,137,6.2,6.2,96,0.00,,---,0.05,VWS V14.01,2013-01-08 19:55:00,
2013-01-08 14:00:00,66.9,65.7,29.76,SE,137,5.2,7.2,96,0.00,,---,0.05,VWS V14.01,2013-01-08 20:00:00,
2013-01-08 14:05:00,66.9,65.7,29.76,SE,138,3.2,5.2,96,0.00,,---,0.05,VWS V14.01,2013-01-08 20:05:00,
2013-01-08 14:10:00,66.8,65.3,29.76,SE,128,3.2,5.2,95,0.00,,---,0.05,VWS V14.01,2013-01-08 20:10:00,
2013-01-08 14:15:00,66.3,64.8,29.75,SE,138,1.2,6.2,95,0.00,,---,0.05,VWS V14.01,2013-01-08 20:15:00,
2013-01-08 14:20:00,66.4,65.2,29.75,SE,132,2.2,7.2,96,0.00,,---,0.05,VWS V14.01,2013-01-08 20:20:00,
2013-01-08 14:25:00,66.6,65.4,29.75,SE,130,4.2,8.2,96,0.00,,---,0.05,VWS V14.01,2013-01-08 20:25:00,
2013-01-08 14:30:00,66.6,65.1,29.75,SE,135,7.2,7.2,95,0.00,,---,0.05,VWS V14.01,2013-01-08 20:30:00,
2013-01-08 14:35:00,66.4,65.2,29.75,ESE,107,5.2,11.2,96,0.00,,---,0.05,VWS V14.01,2013-01-08 20:35:00,
2013-01-08 14:40:00,66.3,65.1,29.75,East,96,3.2,10.2,96,0.00,,---,0.05,VWS V14.01,2013-01-08 20:40:00,
2013-01-08 14:45:00,66.1,64.9,29.75,ESE,103,7.2,10.2,96,0.00,,---,0.05,VWS V14.01,2013-01-08 20:45:00,
2013-01-08 14:50:00,66.1,64.9,29.75,ESE,121,9.2,10.2,96,0.00,,---,0.05,VWS V14.01,2013-01-08 20:50:00,
2013-01-08 14:55:00,66.0,64.8,29.75,East,89,3.2,11.2,96,0.00,,---,0.05,VWS V14.01,2013-01-08 20:55:00,
2013-01-08 15:00:00,66.3,65.4,29.75,ESE,111,6.2,12.2,97,0.00,,---,0.05,VWS V14.01,2013-01-08 21:00:00,
2013-01-08 15:05:00,66.1,65.2,29.75,ESE,107,5.2,15.2,97,0.00,,---,0.05,VWS V14.01,2013-01-08 21:05:00,
2013-01-08 15:10:00,66.0,65.1,29.75,SE,124,5.2,11.2,97,0.00,,---,0.05,VWS V14.01,2013-01-08 21:10:00,
2013-01-08 15:15:00,66.0,65.1,29.75,SE,130,7.2,13.2,97,0.00,,---,0.05,VWS V14.01,2013-01-08 21:15:00,
2013-01-08 15:20:00,65.8,64.9,29.75,ESE,112,10.2,13.2,97,0.00,,---,0.05,VWS V14.01,2013-01-08 21:20:00,
2013-01-08 15:25:00,65.6,65.0,29.75,SE,130,14.2,15.2,98,0.00,,---,0.05,VWS V14.01,2013-01-08 21:25:00,
2013-01-08 15:30:00,65.6,65.0,29.75,East,96,5.2,16.2,98,0.00,,---,0.05,VWS V14.01,2013-01-08 21:30:00,
2013-01-08 15:35:00,65.5,64.9,29.75,ESE,112,5.2,14.2,98,0.00,,---,0.05,VWS V14.01,2013-01-08 21:35:00,
2013-01-08 15:40:00,65.5,64.9,29.75,ESE,119,5.2,14.2,98,0.00,,---,0.05,VWS V14.01,2013-01-08 21:40:00,
2013-01-08 15:45:00,65.3,64.4,29.74,ESE,109,8.2,16.2,97,0.00,,---,0.05,VWS V14.01,2013-01-08 21:45:00,
2013-01-08 15:50:00,65.3,64.7,29.74,ESE,108,5.2,17.2,98,0.00,,---,0.05,VWS V14.01,2013-01-08 21:50:00,
2013-01-08 15:55:00,65.2,64.3,29.74,ESE,104,10.2,17.2,97,0.00,,---,0.05,VWS V14.01,2013-01-08 21:55:00,
2013-01-08 16:00:00,65.2,64.3,29.75,SE,125,8.2,16.2,97,0.00,,---,0.05,VWS V14.01,2013-01-08 22:00:00,
2013-01-08 16:05:00,65.2,64.3,29.75,ESE,110,6.2,16.2,97,0.00,,---,0.05,VWS V14.01,2013-01-08 22:05:00,
2013-01-08 16:10:00,65.3,64.4,29.75,East,101,11.2,17.2,97,0.00,,---,0.05,VWS V14.01,2013-01-08 22:10:00,
2013-01-08 16:15:00,65.3,64.1,29.75,ESE,121,8.2,18.2,96,0.00,,---,0.05,VWS V14.01,2013-01-08 22:15:00,
2013-01-08 16:20:00,65.3,64.1,29.75,SE,133,15.2,16.2,96,0.00,,---,0.05,VWS V14.01,2013-01-08 22:20:00,
2013-01-08 16:25:00,65.5,64.6,29.75,ESE,107,7.2,16.2,97,0.00,,---,0.05,VWS V14.01,2013-01-08 22:25:00,
2013-01-08 16:30:00,65.5,64.6,29.73,ESE,107,12.2,15.2,97,0.00,,---,0.05,VWS V14.01,2013-01-08 22:30:00,
2013-01-08 16:35:00,65.5,64.6,29.73,SE,138,15.2,16.2,97,0.00,,---,0.05,VWS V14.01,2013-01-08 22:35:00,
2013-01-08 16:40:00,65.5,64.6,29.73,ESE,123,7.2,18.2,97,0.00,,---,0.05,VWS V14.01,2013-01-08 22:40:00,
2013-01-08 16:45:00,65.5,64.6,29.73,East,92,11.2,15.2,97,0.00,,---,0.05,VWS V14.01,2013-01-08 22:45:00,
2013-01-08 16:50:00,65.5,64.6,29.73,ESE,121,7.2,15.2,97,0.00,,---,0.05,VWS V14.01,2013-01-08 22:50:00,
2013-01-08 16:55:00,65.5,64.6,29.73,ESE,115,11.2,15.2,97,0.00,,---,0.05,VWS V14.01,2013-01-08 22:55:00,
2013-01-08 17:00:00,65.5,64.6,29.73,ESE,103,7.2,15.2,97,0.00,,---,0.05,VWS V14.01,2013-01-08 23:00:00,
2013-01-08 17:05:00,65.6,64.7,29.73,ESE,115,8.2,15.2,97,0.00,,---,0.05,VWS V14.01,2013-01-08 23:05:00,
2013-01-08 17:10:00,65.6,64.7,29.73,ESE,110,11.2,13.2,97,0.00,,---,0.05,VWS V14.01,2013-01-08 23:10:00,
2013-01-08 17:15:00,65.5,64.3,29.73,ESE,109,11.2,17.2,96,0.00,,---,0.05,VWS V14.01,2013-01-08 23:15:00,
2013-01-08 17:20:00,65.5,64.3,29.72,ESE,103,8.2,16.2,96,0.00,,---,0.05,VWS V14.01,2013-01-08 23:20:00,
2013-01-08 17:25:00,65.6,64.4,29.72,East,99,6.2,15.2,96,0.00,,---,0.05,VWS V14.01,2013-01-08 23:25:00,
2013-01-08 17:30:00,65.8,64.6,29.72,SE,124,5.2,15.2,96,0.00,,---,0.05,VWS V14.01,2013-01-08 23:30:00,
2013-01-08 17:35:00,65.8,64.6,29.73,East,101,7.2,15.2,96,0.00,,---,0.05,VWS V14.01,2013-01-08 23:35:00,
2013-01-08 17:40:00,65.8,64.6,29.73,ESE,117,13.2,15.2,96,0.00,,---,0.05,VWS V14.01,2013-01-08 23:40:00,
2013-01-08 17:45:00,65.8,64.6,29.73,ESE,107,7.2,13.2,96,0.00,,---,0.05,VWS V14.01,2013-01-08 23:45:00,
2013-01-08 17:50:00,65.8,64.6,29.75,SE,127,10.2,15.2,96,0.00,,---,0.05,VWS V14.01,2013-01-08 23:50:00,
2013-01-08 17:55:00,66.0,64.8,29.75,East,81,7.2,15.2,96,0.00,,---,0.05,VWS V14.01,2013-01-08 23:55:00,
2013-01-08 18:00:00,66.0,64.8,29.75,East,101,8.2,15.2,96,0.00,,---,0.05,VWS V14.01,2013-01-09 00:00:00,
2013-01-08 18:05:00,66.0,64.8,29.76,ESE,103,8.2,16.2,96,0.00,,---,0.05,VWS V14.01,2013-01-09 00:05:00,
2013-01-08 18:10:00,66.1,64.9,29.76,SE,132,7.2,14.2,96,0.00,,---,0.05,VWS V14.01,2013-01-09 00:10:00,
2013-01-08 18:15:00,66.1,64.9,29.76,ESE,109,7.2,13.2,96,0.00,,---,0.05,VWS V14.01,2013-01-09 00:15:00,
2013-01-08 18:20:00,66.1,64.9,29.76,ESE,116,8.2,14.2,96,0.00,,---,0.05,VWS V14.01,2013-01-09 00:20:00,
2013-01-08 18:25:00,66.1,64.9,29.76,ESE,121,6.2,15.2,96,0.00,,---,0.05,VWS V14.01,2013-01-09 00:25:00,
2013-01-08 18:30:00,66.1,64.9,29.76,ESE,105,6.2,16.2,96,0.00,,---,0.05,VWS V14.01,2013-01-09 00:30:00,
2013-01-08 18:35:00,66.1,64.9,29.78,ESE,105,4.2,15.2,96,0.00,,---,0.05,VWS V14.01,2013-01-09 00:35:00,
2013-01-08 18:40:00,66.1,64.9,29.78,ESE,109,5.2,17.2,96,0.00,,---,0.05,VWS V14.01,2013-01-09 00:40:00,
2013-01-08 18:45:00,66.1,64.9,29.78,East,99,6.2,12.2,96,0.00,,---,0.05,VWS V14.01,2013-01-09 00:45:00,
2013-01-08 18:50:00,66.0,64.8,29.78,ESE,116,4.2,11.2,96,0.00,,---,0.05,VWS V14.01,2013-01-09 00:50:00,
2013-01-08 18:55:00,66.0,64.8,29.78,East,101,5.2,10.2,96,0.00,,---,0.05,VWS V14.01,2013-01-09 00:55:00,
2013-01-08 19:00:00,66.1,65.2,29.78,ESE,107,6.2,13.2,97,0.00,,---,0.05,VWS V14.01,2013-01-09 01:00:00,
2013-01-08 19:05:00,66.1,65.2,29.78,East,96,8.2,13.2,97,0.00,,---,0.05,VWS V14.01,2013-01-09 01:05:00,
2013-01-08 19:10:00,66.1,65.2,29.78,East,91,10.2,11.2,97,0.00,,---,0.05,VWS V14.01,2013-01-09 01:10:00,
2013-01-08 19:15:00,66.1,65.2,29.78,ESE,114,6.2,13.2,97,0.00,,---,0.05,VWS V14.01,2013-01-09 01:15:00,
2013-01-08 19:20:00,66.1,65.2,29.78,ESE,109,7.2,13.2,97,0.00,,---,0.05,VWS V14.01,2013-01-09 01:20:00,
2013-01-08 19:25:00,66.0,65.1,29.78,ESE,112,6.2,12.2,97,0.00,,---,0.05,VWS V14.01,2013-01-09 01:25:00,
2013-01-08 19:30:00,66.0,65.1,29.78,East,89,2.2,10.2,97,0.01,,---,0.06,VWS V14.01,2013-01-09 01:30:00,
2013-01-08 19:35:00,66.0,65.1,29.77,ESE,120,7.2,12.2,97,0.01,,---,0.06,VWS V14.01,2013-01-09 01:35:00,
2013-01-08 19:40:00,65.8,64.9,29.77,East,90,9.2,12.2,97,0.01,,---,0.06,VWS V14.01,2013-01-09 01:40:00,
2013-01-08 19:45:00,65.8,65.2,29.77,ESE,103,8.2,12.2,98,0.01,,---,0.06,VWS V14.01,2013-01-09 01:45:00,
2013-01-08 19:50:00,66.0,65.4,29.77,East,101,6.2,15.2,98,0.01,,---,0.06,VWS V14.01,2013-01-09 01:50:00,
2013-01-08 19:55:00,66.0,65.4,29.77,ESE,111,10.2,16.2,98,0.01,,---,0.06,VWS V14.01,2013-01-09 01:55:00,
2013-01-08 20:00:00,66.0,65.4,29.77,ESE,106,10.2,14.2,98,0.01,,---,0.06,VWS V14.01,2013-01-09 02:00:00,
2013-01-08 20:05:00,65.8,65.2,29.75,ESE,109,6.2,12.2,98,0.01,,---,0.06,VWS V14.01,2013-01-09 02:05:00,
2013-01-08 20:10:00,65.8,65.2,29.75,SE,137,6.2,16.2,98,0.01,,---,0.06,VWS V14.01,2013-01-09 02:10:00,
2013-01-08 20:15:00,66.0,65.7,29.75,ESE,114,12.2,17.2,99,0.01,,---,0.06,VWS V14.01,2013-01-09 02:15:00,
2013-01-08 20:20:00,66.0,65.7,29.73,ENE,78,11.2,18.2,99,0.01,,---,0.06,VWS V14.01,2013-01-09 02:20:00,
2013-01-08 20:25:00,65.8,65.5,29.73,SE,128,10.2,20.2,99,0.01,,---,0.06,VWS V14.01,2013-01-09 02:25:00,
2013-01-08 20:30:00,65.8,65.5,29.73,SE,129,9.2,20.2,99,0.01,,---,0.06,VWS V14.01,2013-01-09 02:30:00,
2013-01-08 20:35:00,66.0,65.7,29.72,SE,138,7.2,19.2,99,0.00,,---,0.06,VWS V14.01,2013-01-09 02:35:00,
2013-01-08 20:40:00,66.1,65.8,29.72,SE,142,8.2,20.2,99,0.00,,---,0.06,VWS V14.01,2013-01-09 02:40:00,
2013-01-08 20:45:00,66.3,66.0,29.72,ESE,109,14.2,21.2,99,0.00,,---,0.06,VWS V14.01,2013-01-09 02:45:00,
2013-01-08 20:50:00,66.3,66.0,29.73,ESE,117,13.2,18.2,99,0.00,,---,0.06,VWS V14.01,2013-01-09 02:50:00,
2013-01-08 20:55:00,66.3,66.0,29.73,SE,146,8.2,20.2,99,0.00,,---,0.06,VWS V14.01,2013-01-09 02:55:00,
2013-01-08 21:00:00,66.1,65.8,29.73,SE,135,14.2,18.2,99,0.00,,---,0.06,VWS V14.01,2013-01-09 03:00:00,
2013-01-08 21:05:00,66.3,66.0,29.74,ESE,108,16.2,20.2,99,0.00,,---,0.06,VWS V14.01,2013-01-09 03:05:00,
2013-01-08 21:10:00,66.3,66.0,29.74,East,101,11.2,23.2,99,0.00,,---,0.06,VWS V14.01,2013-01-09 03:10:00,
2013-01-08 21:15:00,66.3,66.0,29.74,ESE,103,11.2,19.2,99,0.00,,---,0.06,VWS V14.01,2013-01-09 03:15:00,
2013-01-08 21:20:00,66.4,66.1,29.75,ESE,114,7.2,17.2,99,0.00,,---,0.06,VWS V14.01,2013-01-09 03:20:00,
2013-01-08 21:25:00,66.4,66.1,29.75,SE,132,11.2,18.2,99,0.00,,---,0.06,VWS V14.01,2013-01-09 03:25:00,
2013-01-08 21:29:00,66.4,66.1,29.75,ESE,123,11.2,16.2,99,0.00,,---,0.06,VWS V14.01,2013-01-09 03:29:00,
2013-01-08 21:34:00,66.6,66.3,29.78,East,101,7.2,16.2,99,0.00,,---,0.06,VWS V14.01,2013-01-09 03:34:00,
2013-01-08 21:39:00,66.8,66.5,29.78,SE,138,11.2,16.2,99,0.00,,---,0.06,VWS V14.01,2013-01-09 03:39:00,
2013-01-08 21:44:00,66.8,66.5,29.78,ESE,108,7.2,17.2,99,0.00,,---,0.06,VWS V14.01,2013-01-09 03:44:00,
2013-01-08 21:49:00,66.8,66.5,29.78,East,94,10.2,17.2,99,0.00,,---,0.06,VWS V14.01,2013-01-09 03:49:00,
2013-01-08 21:54:00,66.8,66.5,29.78,SE,128,10.2,15.2,99,0.00,,---,0.06,VWS V14.01,2013-01-09 03:54:00,
2013-01-08 21:59:00,66.6,66.3,29.78,ESE,108,6.2,16.2,99,0.00,,---,0.06,VWS V14.01,2013-01-09 03:59:00,
2013-01-08 22:04:00,66.4,65.8,29.78,SE,138,16.2,16.2,98,0.00,,---,0.06,VWS V14.01,2013-01-09 04:04:00,
2013-01-08 22:09:00,66.6,66.0,29.78,East,98,11.2,16.2,98,0.00,,---,0.06,VWS V14.01,2013-01-09 04:09:00,
2013-01-08 22:14:00,66.6,66.0,29.78,South,170,7.2,14.2,98,0.00,,---,0.06,VWS V14.01,2013-01-09 04:14:00,
2013-01-08 22:19:00,66.8,66.2,29.78,SE,134,10.2,14.2,98,0.00,,---,0.06,VWS V14.01,2013-01-09 04:19:00,
2013-01-08 22:24:00,66.4,65.8,29.78,ESE,110,12.2,12.2,98,0.00,,---,0.06,VWS V14.01,2013-01-09 04:24:00,
2013-01-08 22:29:00,66.3,65.7,29.78,SE,145,6.2,13.2,98,0.00,,---,0.06,VWS V14.01,2013-01-09 04:29:00,
2013-01-08 22:34:00,66.4,65.8,29.77,SE,126,14.2,15.2,98,0.00,,---,0.06,VWS V14.01,2013-01-09 04:34:00,
2013-01-08 22:39:00,66.4,65.8,29.77,ESE,119,11.2,18.2,98,0.00,,---,0.06,VWS V14.01,2013-01-09 04:39:00,
2013-01-08 22:44:00,66.6,66.0,29.77,ESE,123,7.2,20.2,98,0.00,,---,0.06,VWS V14.01,2013-01-09 04:44:00,
2013-01-08 22:49:00,66.6,65.7,29.78,ESE,105,12.2,17.2,97,0.00,,---,0.06,VWS V14.01,2013-01-09 04:49:00,
2013-01-08 22:54:00,66.6,65.7,29.78,ESE,115,11.2,20.2,97,0.00,,---,0.06,VWS V14.01,2013-01-09 04:54:00,
2013-01-08 22:59:00,66.8,65.9,29.78,ESE,121,8.2,17.2,97,0.00,,---,0.06,VWS V14.01,2013-01-09 04:59:00,
2013-01-08 23:00:00,66.8,65.9,29.78,ESE,116,12.2,17.2,97,0.00,,---,0.06,VWS V14.01,2013-01-09 05:00:00,
2013-01-08 23:02:00,66.9,66.0,29.79,SE,127,5.2,12.2,97,0.00,,---,0.06,VWS V14.01,2013-01-09 05:02:00,
2013-01-08 23:03:00,66.9,66.0,29.79,ESE,116,7.2,12.2,97,0.00,,---,0.06,VWS V14.01,2013-01-09 05:03:00,
2013-01-08 23:08:00,66.8,65.9,29.79,ESE,115,8.2,19.2,97,0.00,,---,0.06,VWS V14.01,2013-01-09 05:08:00,
2013-01-08 23:13:00,66.8,65.9,29.79,East,101,11.2,15.2,97,0.00,,---,0.06,VWS V14.01,2013-01-09 05:13:00,
2013-01-08 23:18:00,66.4,65.5,29.80,East,100,8.2,12.2,97,0.00,,---,0.06,VWS V14.01,2013-01-09 05:18:00,
2013-01-08 23:23:00,66.4,65.5,29.80,ESE,106,5.2,14.2,97,0.00,,---,0.06,VWS V14.01,2013-01-09 05:23:00,
2013-01-08 23:28:00,66.6,65.7,29.80,ESE,104,11.2,15.2,97,0.00,,---,0.06,VWS V14.01,2013-01-09 05:28:00,
2013-01-08 23:33:00,66.6,65.7,29.78,East,101,6.2,14.2,97,0.00,,---,0.06,VWS V14.01,2013-01-09 05:33:00,
2013-01-08 23:38:00,66.8,65.9,29.78,ESE,104,16.2,16.2,97,0.00,,---,0.06,VWS V14.01,2013-01-09 05:38:00,
2013-01-08 23:43:00,66.6,66.0,29.78,ESE,114,6.2,13.2,98,0.00,,---,0.06,VWS V14.01,2013-01-09 05:43:00,
2013-01-08 23:48:00,66.9,66.3,29.77,East,92,10.2,16.2,98,0.01,,---,0.07,VWS V14.01,2013-01-09 05:48:00,
2013-01-08 23:53:00,67.6,67.0,29.77,SE,135,15.2,16.2,98,0.01,,---,0.07,VWS V14.01,2013-01-09 05:53:00,
2013-01-08 23:58:00,68.1,67.5,29.77,SE,125,10.2,16.2,98,0.01,,---,0.07,VWS V14.01,2013-01-09 05:58:00,